OPS 4682 DEB, 38365

Orbit data source: Space-Track

OPS 4682 DEB, 38365 is space debris in LEO originally from a launch on Sat, 03 Apr 1965 UTC launched from the Air Force Western Test Range (AFWTR). Debris objects in space refer to the collection of defunct objects orbiting the Earth. Examples of debris include non-operational satellites, rocket bodies, and fragments generated from explosions, collisions, or faulty payload assembly.

Loading next visibility...
Identifier
38365, 1965-027BS
Orbit
LEO
Country
Flag of USUS
Related business
Manufacturer
Unknown
Mission
Spacecraft
Bus & Motor
Unknown
Mass
Unknown
Launch date (UTC)
1965-04-03 (61 years ago)
Launch vehicle
Unknown
Launch site
Air Force Western Test Range (AFWTR)
Object type
Payload
Rocket body
Debris
Shape & HBR
Unknown shape, 0.1 m
Radar Cross Section
Small (<0.1 m²)

Expand to show TLE details & history
Last TLE update: 2 days ago

TLE from 2 days ago
0 OPS 4682 DEB
1 38365U 65027BS  26206.68436887 -.00000222  00000-0 -76990-3 0  9993
2 38365  90.2415 356.9035 0024066 235.1210 124.7649 12.99310106637316
Epoch: 2026-07-25T16:25Z
TLE epoch observation values (Epoch: 2026-07-25T16:25:29.470Z)
Latitude
-0.00005°
Longitude
167.13759°
Altitude
1,278.193 km
Speed
7.212 km/s
True Right ascension
23h 47m 36s
True Declination
0° 00' 00"
Sunlit
Object was in full shadow at epoch
Visualization orbit readout
Latitude
Unknown
Longitude
Unknown
Altitude
Unknown
Speed
Unknown
Apparent Right ascension
Unknown
Apparent Declination
Unknown
Sunlit
N/A
Visualization observer readout
Local Sidereal Time
19:00:49
Azimuth
Unknown
Elevation
Unknown
Doppler factor
Unknown
Orbital elements
Apogee altitude
1,280.305 km
Perigee altitude
1,243.532 km
Semi-major axis
7,640.056 km
Eccentricity
0.00241
Inclination
90.2415°
RAAN
356.9035°
Arg. of periapsis
235.121°
True anomaly
124.99106°
Mean anomaly
124.7649°
Eccentric anomaly
124.87802°
Mean motion
3.25011 °/min
Orbital period
110.77 mins
BSTAR
-0.0007699
Loading maneuver chart data...
Computing Atmospheric mass density...
Loading historical data...
Loading historical data...
Loading historical data...
Loading historical data...
Loading historical data...
Loading historical data...
Loading historical data...

Documentation

Showing up to 5 results
|